Location: Palomar Mountain Lodge
(33.3110°N, 116.8495°W)
Time: 14:50:07
(UTC-07:00)

ASTRO E2 - Pass Details

Date: 19 May 2017
Orbit: 515 x 522 km, 31.4° (Epoch: 24 May)

Event Time Altitude Azimuth Distance (km) Brightness Sun altitude
Rises 20:32:42 0° 238° (WSW) 2,606 6.6 -9.8°
Reaches altitude 10° 20:35:02 10° 229° (SW) 1,721 5.6 -10.3°
Maximum altitude 20:38:41 35° 163° (SSE) 833 3.4 -10.9°
Enters shadow 20:41:28 15° 102° (ESE) 1,424 4.3 -11.4°
